Regional Weather Roundup
Issued by NWS

Home | Current Version | Previous Version | Text Only | Print | Product List | Glossary Off
Versions: 1 2 3 4 5 6 7 8 9 10 11 12 13 14 15 16 17 18 19 20 21 22 23 24 25 26 27 28 29 30 31 32 33 34 35 36 37 38 39 40 41 42 43 44 45 46 47 48 49 50

000
ASUS43 KMPX 120101
RWRMN
WEATHER ROUNDUP FOR MINNESOTA
NATIONAL WEATHER SERVICE TWIN CITIES/CHANHASSEN MN
800 PM CDT FRI JUL 11 2014


NOTE: "FAIR" INDICATES FEW OR NO CLOUDS BELOW 12,000 FEET WITH NO
SIGNIFICANT WEATHER AND/OR OBSTRUCTIONS TO VISIBILITY. N/A MEANS
CURRENT SKY AND/OR WEATHER CONDITIONS ARE NOT AVAILABLE.

MNZ060>063-068>070-120200-
   Twin Cities Metro

CITY           SKY/WX    TMP DP  RH WIND       PRES   REMARKS
TWIN CITIES    MOCLDY    80  69  69 VRB5      29.97R
ST PAUL        CLOUDY    77  72  84 SE3       29.97R
CRYSTAL        PTCLDY    80  69  69 SW6       29.96R
BLAINE         PTCLDY    79  72  78 CALM      29.97R
LAKEVILLE      MOCLDY    75  70  83 CALM      29.98R
EDEN PRAIRIE   PTCLDY    79  70  74 S5        29.96S
SOUTH ST PAUL  CLOUDY    78  69  74 CALM      29.97S
LAKE ELMO      DRIZZLE   73  72  94 CALM      29.99S
$$
MNZ001>005-007-008-013>017-022>024-027-028-120200-
   Northwest Minnesota

CITY           SKY/WX    TMP DP  RH WIND       PRES   REMARKS
BEMIDJI        SUNNY     78  55  45 W7        29.95R
ROSEAU         SUNNY     75  55  50 NW12      29.92R
WARROAD        SUNNY     75  57  53 W9        29.91R
THIEF RVR FALL SUNNY     79  52  38 NW13      29.94R
CROOKSTON      SUNNY     79  61  53 NW8       29.94R
FOSSTON        SUNNY     79  55  44 W7        29.96R
MOORHEAD       SUNNY     82  57  42 NW9       29.96R
PARK RAPIDS    SUNNY     78  64  61 NW7       29.96R
$$
MNZ006-009>011-018-025>026-120200-
   North Central Minnesota

CITY           SKY/WX    TMP DP  RH WIND       PRES   REMARKS
BAUDETTE       SUNNY     77  54  44 MISG      29.91R
FLAG ISLAND    SUNNY     73  54  49 NW15      29.89R
INTL FALLS     CLEAR     76  55  48 W9        29.89R
LONGVILLE      CLEAR     79  64  61 W3        29.95R
GRAND RAPIDS   CLEAR     79  63  57 NW8       29.93R
CRANE LAKE     CLEAR     72  68  88 CALM      29.90S
ORR            CLEAR     73  68  83 CALM      29.88R
COOK           PTCLDY    72  63  73 CALM      29.91R
$$
MNZ012-019>021-037-120200-
   Northeast Minnesota

CITY           SKY/WX    TMP DP  RH WIND       PRES   REMARKS
DULUTH         MOCLDY    73  68  84 SW8       29.95S THUNDER
ELY            PTCLDY    70  61  73 W3        29.91S
HIBBING        PTCLDY    72  62  71 S3        29.93R
EVELETH        MOCLDY    72  63  73 SE5       29.95R
DULUTH HARBOR  PTCLDY    75  70  83 S9        29.93S
TWO HARBORS    PTCLDY    70  64  83 SW7       29.92S
SILVER BAY     PTCLDY    70  70 100 S7        29.90F
GRAND MARAIS     N/A     50  48  93 CALM      29.91F
G MARAIS ARPRT CLOUDY    64  63  94 S6        29.95S FOG
$$
MNZ029>031-032-039>041-046>048-054>057-064-120200-
   West Central Minnesota

CITY           SKY/WX    TMP DP  RH WIND       PRES   REMARKS
FERGUS FALLS   SUNNY     82  61  47 N3        29.94R
WHEATON        MOSUNNY   82  66  57 NW3       29.96R
MORRIS         MOSUNNY   82  72  69 N3        29.95R
ALEXANDRIA     SUNNY     83  69  62 N6        29.98R
ELBOW LAKE     FAIR      82  68  61 N5        29.96R
WADENA         SUNNY     79  66  65 NW3       29.96R
GLENWOOD       SUNNY     82  72  69 CALM      29.98R
APPLETON       MOSUNNY   88  72  58 CALM      29.94R HX  94
BENSON         SUNNY     84  73  70 CALM      29.95R HX  91
ORTONVILLE     MOSUNNY   84  70  61 N3        29.95R
MADISON        SUNNY     88  73  62 CALM      29.95R HX  96
WILLMAR        FAIR      84  70  61 CALM      29.98R
$$
MNZ033>034-036-042>043-049>051-058-059-120200-
   Central Minnesota

CITY           SKY/WX    TMP DP  RH WIND       PRES   REMARKS
ST CLOUD       CLEAR     81  72  74 S6        29.95R
SAUK CENTRE    MOCLDY    82  72  70 CALM      29.96R
PAYNESVILLE    CLEAR     77  70  77 CALM      29.97R
AITKIN         PTCLDY    79  66  65 CALM      29.94R
PINE RIVER     CLEAR     79  68  69 W3        29.98R
BRAINERD       MOCLDY    84  72  67 S7        29.95R
STAPLES        CLEAR     79  66  65 NW3       29.96R
LONG PRAIRIE   FAIR      81  70  69 CALM      29.96S
LITTLE FALLS   CLEAR     79  70  73 S3        29.95R
LITCHFIELD     CLEAR     82  75  78 CALM      29.97R
BUFFALO        CLEAR     80  70  72 CALM      29.98R
MAPLE LAKE     CLEAR     80  74  82 CALM      29.98R
$$
MNZ037-044-045-052-053-120200-
   East Central Minnesota

CITY           SKY/WX    TMP DP  RH WIND       PRES   REMARKS
PRINCETON      CLEAR     81  72  74 S5        29.97R
MORA           PTCLDY    75  68  78 S5        29.98R
CAMBRIDGE      CLEAR     81  68  65 S5        29.95S
RUSH CITY      CLEAR     76  69  80 CALM      29.97R
MOOSE LAKE     CLOUDY    73  68  83 S5        29.93S
HINCKLEY       FAIR      75  70  83 S6        29.96S
CLOQUET        MOCLDY    73  68  83 S8        29.95S
MCGREGOR       CLEAR     73  70  88 S5        29.94S
$$
MNZ071>073-080-081-089-090-097-098-120200-
   Southwest Minnesota

CITY           SKY/WX    TMP DP  RH WIND       PRES   REMARKS
MONTEVIDEO     SUNNY     88  72  58 CALM      29.96R HX  94
GRANITE FALLS  CLEAR     85  70  61 CALM      29.97R
CANBY          SUNNY     82  71  68 CALM      29.97R
MARSHALL       CLEAR     84  72  65 SW6       29.96R
REDWOOD FALLS  CLEAR     83  73  72 S6        29.96R
OLIVIA         PTCLDY    82  72  69 S5        29.96S
PIPESTONE      SUNNY     79  72  78 SW10      30.01R
WINDOM         PTCLDY    81  72  74 SW5       30.00R
WORTHINGTON    PTCLDY    77  72  83 SW6       30.02R
JACKSON        CLOUDY    79  68  69 SW7       30.01R
TRACY          PTCLDY    83  72  69 SW3       29.99R
SLAYTON        CLEAR     80  72  77 CALM      30.01R
$$
MNZ065>067-074>077-082>085-091>093-120200-
   South Central Minnesota

CITY           SKY/WX    TMP DP  RH WIND       PRES   REMARKS
MANKATO        MOCLDY    79  68  69 S7        29.98R
NEW ULM        CLEAR     81  72  74 CALM      29.97R
ST JAMES       PTCLDY    82  72  69 S6        29.98S
FAIRMONT       CLOUDY    79  66  65 S10       29.99S
GLENCOE        CLEAR     81  70  68 CALM      29.97R
FARIBAULT      CLOUDY    81  66  61 S6        29.99S
OWATONNA       PTCLDY    77  66  69 S8        30.00R
WASECA         PTCLDY    77  63  61 S12G17    30.01R
ALBERT LEA     PTCLDY    75  66  73 W6        30.01S
$$
MNZ078>079-086>088-094>096-120200-
   Southeast Minnesota

CITY           SKY/WX    TMP DP  RH WIND       PRES   REMARKS
ROCHESTER      CLOUDY    74  66  76 S14       30.04S
RED WING       CLOUDY    77  66  69 SE5       29.98S
STANTON        CLOUDY    78  68  72 S9        29.97S
DODGE CENTER   MOCLDY    75  68  78 S13       30.02S
WINONA         CLOUDY    77  64  65 SW3       30.03R
AUSTIN         CLEAR     75  66  73 S8        30.02S
PRESTON        CLOUDY    74  67  78 S7        30.05R
$$
ABBREVIATIONS USED IN REMARKS
   TC - TEMPERATURES IN CELSIUS
  WCI - WIND CHILL INDEX
   HX - HEAT INDEX
  VSB - VISIBILITY
$$


USA.gov is the U.S. government's official web portal to all federal, state and local government web resources and services.